Home > Weather > Aurora > Past weeks

Flag for USA Weather for the Past 2 Weeks in Aurora, Illinois, USA

Now
47 °F

Low clouds.


Feels Like: 43 °F
Forecast: 44 / 56 °F
Wind: 7 mph from Northeast

Location: Dupage Airport

Current Time: May 1, 2016 at 11:09:08 PM

Latest Report: May 1, 2016 at 9:52 PM


Visibility: 10 mi

Pressure: 30.01 "Hg

Humidity: 90%

Dew Point: 44 °F

Location of AuroraLocation

Historic Weather in Aurora — Graph

°F

Aurora Temperature Yesterday

Maximum temperature yesterday: 49 °F (at 8:52 AM)
Minimum temperature yesterday: 43 °F (at 12:52 AM)
Average temperature yesterday: 45 °F

High & Low Weather Summary for the Past Weeks

 TemperatureHumidityPressure
High82 °F (Apr 25, 2:52 PM)93% (Apr 21, 5:01 AM)30.40 "Hg (Apr 21, 5:01 AM)
Low34 °F (Apr 23, 5:52 AM)21% (Apr 18, 4:52 PM)29.57 "Hg (Apr 25, 6:52 PM)
Average54 °F68%30.00 "Hg
* Reported Apr 16 8:52 PM — May 1 8:57 PM, Aurora, Weather by CustomWeather, © 2016

Note: Actual official high and low records may vary slightly from our data, if they occured in-between our weather recording intervals... More about our weather records

Advertising

Aurora Weather History for the Previous 24 Hours

Scroll right to see more
 ConditionsComfort  
Time TempWeatherWind HumidityBarometerVisibility
8:57 PM
Sun, May 1
46 °FRain. Fog.3 mph93%29.98 "Hg4 mi
7:52 PM46 °FHeavy rain. Fog.8 mph89%29.98 "Hg3 mi
6:52 PM47 °FLight rain. Overcast.16 mph86%29.95 "Hg8 mi
5:52 PM49 °FOvercast.13 mph80%29.97 "Hg9 mi
4:52 PM49 °FOvercast.14 mph80%29.98 "Hg9 mi
3:52 PM50 °FOvercast.12 mph80%30.00 "Hg9 mi
2:52 PM50 °FLow clouds.12 mph80%30.01 "Hg8 mi
1:52 PM49 °FLow clouds.13 mph80%30.00 "Hg8 mi
12:52 PM47 °FFog.14 mph90%30.00 "Hg6 mi
11:52 AM47 °FFog.13 mph90%30.00 "Hg5 mi
10:52 AM46 °FFog.9 mph89%30.00 "Hg3 mi
9:52 AM45 °FFog.15 mph90%30.00 "Hg3 mi
8:52 AM44 °FFog.12 mph93%30.00 "Hg2 mi
8:00 AM44 °FFog.15 mph93%29.98 "Hg2 mi
6:52 AM44 °FFog.12 mph93%29.96 "Hg1 mi
5:52 AM44 °FFog.12 mph93%29.93 "Hg2 mi
4:52 AM45 °FFog.13 mph93%29.93 "Hg3 mi
3:52 AM46 °FFog.10 mph89%29.92 "Hg5 mi
2:52 AM46 °FFog.13 mph89%29.91 "Hg4 mi
1:52 AM46 °FFog.10 mph89%29.91 "Hg4 mi
12:52 AM46 °FFog.14 mph89%29.91 "Hg5 mi
11:52 PM
Sat, Apr 30
45 °FFog.17 mph93%29.90 "Hg4 mi
Weather by CustomWeather, © 2016

See weather overviewHow to use our weather pages